Weather History for 78641 - August, 2013

Change the Weather History Date:

Friday, August 9, 2013

  Actual Average Record
Temperature  
Mean Temperature 68 °F -  
Max Temperature 77 °F 75 °F - ()
Min Temperature 59 °F 60 °F - ()
Cooling Degree Days 3    
Growing Degree Days 18 (Base 50)    
Moisture  
Dew Point 59 °F    
Average Humidity 75    
Maximum Humidity 94    
Minimum Humidity 38    
Precipitation  
Precipitation 0.00 in - - ()
Sea Level Pressure  
Sea Level Pressure 30.20 in    
Wind  
Wind Speed 4 mph ()    
Max Wind Speed 18 mph    
Max Gust Speed -    
Visibility 5.5 miles    
Events Rain , Thunderstorm    
T = Trace of Precipitation, MM = Missing Value Source: Averaged Metar Reports

Daily Weather History Graph

Daily Weather History Graph

Search for Another Location

Airport or City:

Trip Planner

Search our weather history database for the weather conditions in past years. The results will help you decide how hot, cold, wet, or windy it might be!

Date:

Astronomy

Aug. 09, 2013 Rise Set
Actual Time 5:47 AM CST 6:27 PM CST
Civil Twilight 5:24 AM CST 6:50 PM CST
Nautical Twilight 4:58 AM CST 7:16 PM CST
Astronomical Twilight 4:32 AM CST 7:42 PM CST
Moon 7:57 AM CST (8/9) 8:18 PM CST (8/9)
Length of Visible Light 13h 25m
Length of Day
12h 40m
Waxing Crescent, 8% of the Moon is Illuminated
Aug 9
Waxing Crescent
Aug 14
First Quarter
Aug 20
Full
Aug 28
Last Quarter
Sep 5
New

Hourly Weather History & Observations

Time (CST) Temp. Dew Point Humidity Pressure Visibility Wind Dir Wind Speed Gust Speed Precip Events Conditions
12:00 AM 64.4 °F 62.6 °F 94% 30.27 in 3.7 mi Variable 2.3 mph - N/A   Partly Cloudy
12:23 AM - - N/A% - 5.0 mi NNE 4.6 mph - N/A   Clear
1:00 AM 64.4 °F 57.2 °F 77% 30.27 in - Variable 2.3 mph - N/A   Clear
2:00 AM 64.4 °F 57.2 °F 77% 30.27 in - Calm Calm - N/A   Clear
3:00 AM 62.6 °F 57.2 °F 82% 30.24 in - Calm Calm - N/A   Clear
4:00 AM 60.8 °F 59.0 °F 94% 30.21 in - Calm Calm - N/A   Clear
5:00 AM 60.8 °F 59.0 °F 94% 30.21 in - Calm Calm - N/A   Clear
6:00 AM 60 °F 57 °F 87% 29.91 in 25 mi Calm Calm - -   Partly Cloudy
6:00 AM 59.0 °F 57.2 °F 94% 30.21 in - Calm Calm - N/A   Clear
7:00 AM 62.6 °F 59.0 °F 88% 30.21 in 5.0 mi Calm Calm - N/A   Mostly Cloudy
8:00 AM 66.2 °F 60.8 °F 83% 30.24 in 4.3 mi SSW 4.6 mph - N/A   Mostly Cloudy
9:00 AM 69.8 °F 59.0 °F 68% 30.24 in - SSW 4.6 mph - N/A   Clear
10:00 AM 73.4 °F 55.4 °F 53% 30.24 in 5.6 mi South 9.2 mph - N/A   Scattered Clouds
11:00 AM 75.2 °F 53.6 °F 47% 30.24 in 6.2 mi South 9.2 mph - N/A   Scattered Clouds
12:00 PM 77 °F 56 °F 38% 29.86 in 25 mi South 11.5 mph - -   Partly Cloudy
12:00 PM 77.0 °F 55.4 °F 47% 30.24 in 6.2 mi South 11.5 mph - N/A   Partly Cloudy
1:00 PM 77.0 °F 57.2 °F 50% 30.21 in 6.2 mi SSW 11.5 mph - N/A   Partly Cloudy
2:00 PM 77.0 °F 60.8 °F 57% 30.21 in 6.2 mi South 13.8 mph - N/A   Scattered Clouds
3:00 PM 75.2 °F 59.0 °F 57% 30.18 in 6.2 mi South 13.8 mph - N/A Thunderstorm Thunderstorm
3:05 PM - - N/A% - 3.1 mi North 18.4 mph - N/A Rain , Thunderstorm Thunderstorms and Rain
4:00 PM 68.0 °F 59.0 °F 73% 30.18 in 6.2 mi WSW 4.6 mph - N/A   Scattered Clouds
5:00 PM 69.8 °F 60.8 °F 73% 30.15 in 5.0 mi South 6.9 mph - N/A   Mostly Cloudy
6:00 PM 69.8 °F 62.6 °F 78% 30.18 in 5.0 mi South 16.1 mph - N/A   Scattered Clouds
6:35 PM - - N/A% - 6.2 mi SSW 11.5 mph - N/A Thunderstorm Thunderstorm
7:00 PM 66.2 °F 62.6 °F 88% 30.21 in 6.2 mi SSE 4.6 mph - N/A Thunderstorm Thunderstorm
7:15 PM - - N/A% - 4.3 mi ENE 4.6 mph - N/A Rain , Thunderstorm Light Thunderstorms and Rain
8:00 PM 64.4 °F 60.8 °F 88% 30.24 in 5.0 mi NNE 4.6 mph - N/A   Drizzle
9:00 PM 64.4 °F 60.8 °F 88% 30.27 in 6.2 mi Calm Calm - N/A   Light Drizzle
9:14 PM - - N/A% - 6.2 mi Calm Calm - N/A   Mostly Cloudy
10:00 PM 64.4 °F 60.8 °F 88% 30.30 in 6.2 mi Calm Calm - N/A   Mostly Cloudy
11:00 PM 64.4 °F 62.6 °F 94% 30.30 in 6.2 mi Calm Calm - N/A   Mostly Cloudy